#timestamp,LO_Frequency,Hit,StdDev 
1622829615.9,286047004.8,N
1622829635.7,286047004.8,N
1622829655.6,286047004.6,N
1622829675.4,286047007.5,N
1622829695.2,286047007.4,N
1622829715.1,286047007.3,N
1622829716.0,286047007.3,N
1622829735.8,286047006.7,N
1622829755.7,286047009.0,N
1622829775.5,286047007.9,N
1622829795.3,286047008.0,N
1622829815.2,286047009.4,N
1622829835.0,286047014.4,Y
1622829835.9,286047014.4,P
1622829855.8,286047024.9,P
1622829875.6,286047022.7,N
1622829895.4,286047019.2,N
1622829915.3,286047015.8,N
1622829935.1,286047017.0,N
1622829955.8,286047016.6,N
1622829975.7,286047016.5,N
1622829995.5,286047017.2,N
1622830015.4,286047012.9,N
1622830035.2,286047013.3,N
1622830055.0,286047013.3,N
1622830055.9,286047013.3,N
1622830075.8,286047011.3,N
1622830095.6,286047012.1,N
1622830115.4,286047009.9,N
1622830135.3,286047008.9,N
1622830155.1,286047007.9,N
1622830175.9,286047007.7,N
1622830195.7,286047010.4,N
1622830215.5,286047009.9,N
1622830235.4,286047010.6,N
1622830255.2,286047010.6,N
1622830275.0,286047009.6,N
1622830275.9,286047009.6,N
1622830295.8,286047008.2,N
1622830315.6,286047008.2,N
1622830335.5,286047008.3,N
1622830355.3,286047010.4,N
1622830375.1,286047010.0,N
1622830395.9,286047010.7,N
1622830415.7,286047010.2,N
1622830435.6,286047010.8,N
1622830455.4,286047009.8,Y
1622830475.2,286046998.2,P
1622830495.1,286047001.1,N
1622830496.0,286047001.1,N
1622830515.8,286047000.6,N
1622830535.7,286047001.0,N
1622830555.5,286047000.8,N
1622830575.3,286047000.6,N
1622830595.2,286047000.0,N
1622830615.9,286047000.1,N
1622830635.7,286047000.1,N
1622830655.6,286046999.9,N
1622830675.4,286047000.2,N
1622830695.3,286047000.0,N
1622830715.1,286046999.8,N
1622830716.0,286046999.8,N
1622830735.8,286047002.3,N
1622830755.7,286047001.8,N
1622830775.5,286047002.3,N
1622830795.3,286047002.2,N
1622830815.2,286047004.0,N
1622830835.0,286047001.5,N
1622830835.9,286047001.5,N
1622830855.8,286047000.2,N
1622830875.6,286047000.3,N
1622830895.4,286046999.7,N
1622830915.3,286047002.5,N
1622830935.1,286047002.2,N
1622830955.8,286047004.3,N
1622830975.7,286047003.9,N
1622830995.5,286047005.9,N
1622831015.4,286047003.3,N
1622831035.2,286047003.2,N
1622831055.0,286047003.6,N
1622831055.9,286047003.6,N
1622831075.8,286047005.1,Y
1622831095.6,286047004.4,P
1622831115.4,286047004.4,P
1622831135.3,286047003.6,N
1622831155.1,286047001.3,N
1622831175.9,286047004.0,N
1622831195.7,286047003.9,Y
1622831215.5,286046998.4,P
1622831235.4,286047000.8,N
1622831255.2,286047001.1,N
1622831275.1,286047001.2,N
1622831276.0,286047001.2,N
1622831295.8,286046998.1,N
1622831315.6,286047000.6,N
1622831335.5,286047000.8,N
1622831355.3,286047000.8,N
1622831375.1,286047000.9,N
1622831395.9,286047000.2,N
1622831415.7,286047000.2,N
1622831435.6,286047002.6,N
1622831455.4,286047002.0,N
1622831475.2,286047002.0,N
1622831495.1,286047001.6,N
1622831496.0,286047001.6,N
1622831515.8,286047004.3,Y
1622831535.6,286047004.4,P
1622831555.5,286047004.0,N
1622831575.3,286047011.9,P
1622831595.2,286047004.3,N
1622831615.9,286047001.3,N
1622831635.7,286047001.9,N
1622831655.6,286047004.3,N
1622831675.4,286047003.8,N
1622831695.2,286047004.1,N
1622831715.1,286047004.2,N
1622831716.0,286047004.2,N
1622831735.8,286047001.6,N
1622831755.7,286047001.5,N
1622831775.5,286047002.5,N
1622831795.3,286047001.9,N
1622831815.2,286047003.5,N
1622831835.0,286047003.1,N
1622831835.9,286047003.1,N
1622831855.7,286047004.2,N
1622831875.6,286047004.1,N
1622831895.4,286047004.4,N
1622831915.3,286047003.4,N
1622831935.1,286047004.2,N
1622831936.0,286047004.2,N
1622831955.8,286047002.2,N
1622831975.7,286047001.6,N
1622831995.5,286047002.8,N
1622832015.3,286047000.0,N
1622832035.2,286046999.7,N
1622832055.0,286047002.7,N
1622832055.9,286047002.7,N
1622832075.8,286046999.7,N
1622832095.6,286047000.2,N
1622832115.4,286047000.7,N
1622832135.3,286047000.0,N
1622832155.1,286046999.8,N
1622832175.8,286047001.6,N
1622832195.7,286047001.4,N
1622832215.5,286047004.3,N
1622832235.4,286047004.4,N
1622832255.2,286047001.7,N
1622832275.0,286047002.3,N
1622832275.9,286047002.3,N
1622832295.8,286047001.4,N
1622832315.6,286047001.3,N
1622832335.5,286047003.4,N
1622832355.3,286047004.3,N
1622832375.1,286047004.2,N
1622832395.9,286047004.1,N
1622832415.7,286047001.4,N
1622832435.5,286047003.2,N
1622832455.4,286047003.3,N
1622832475.2,286047004.1,N
1622832495.1,286047003.3,N
1622832496.0,286047003.3,N
1622832515.8,286047003.4,N
1622832535.6,286047001.4,N
1622832555.5,286047001.4,N
1622832575.3,286047004.4,N
1622832595.2,286047003.9,N
1622832615.9,286047004.2,N
1622832635.7,286047004.1,N
1622832655.6,286047002.2,N
1622832675.4,286047001.5,N
1622832695.3,286047001.9,N
1622832715.1,286047000.0,N
1622832716.0,286047000.0,N
1622832735.8,286047000.6,N
1622832755.7,286047000.5,N
1622832775.5,286046998.1,N
1622832795.3,286047001.8,N
1622832815.2,286047006.6,Y
1622832835.0,286047006.7,P
1622832835.9,286047006.7,P
1622832855.8,286047010.0,P
1622832875.6,286047010.1,Y
1622832895.4,286047003.8,P
1622832915.3,286047003.9,N
1622832935.1,286047004.0,P
1622832955.8,286047002.6,N
1622832975.7,286047001.5,N
1622832995.5,286047001.6,N
1622833015.4,286047003.9,N
1622833035.2,286047002.0,N
1622833055.0,286047002.3,N
1622833055.9,286047002.3,N
1622833075.8,286046999.7,N
1622833095.6,286047002.4,N
1622833115.4,286047002.1,N
1622833135.3,286047000.7,N
1622833155.1,286047000.3,N
1622833175.9,286046999.9,N
1622833195.7,286046998.2,N
